Flag for Czech Republic Weather past 2 weeks in Plzen, Czech Republic

Now
38 °F

Scattered clouds.


Feels Like: 30 °F
Forecast: 34 / 41 °F
Wind: 12 mph from West

Location: Kocelovice

Current Time: Dec 20, 2014 at 11:13:44 AM

Latest Report: Dec 20, 2014 at 10:00 AM


Visibility: 25 mi

Pressure: 30.18 "Hg

Humidity: 72%

Dew point: 29 °F

Location of PlzenLocation

Historic Weather in Plzen — Graph

°F

Plzen temperature yesterday

Maximum temperature yesterday: 50 °F (at 12:00 AM)
Minimum temperature yesterday: 45 °F (at 11:00 PM)
Average temperature yesterday: 49 °F

Past Weeks' High & Low Weather Summary

 TemperatureHumidityPressure
High50 °F (Dec 18, 11:00 PM)100% (Dec 6, 8:00 AM)30.51 "Hg (Dec 6, 8:00 AM)
Low23 °F (Dec 9, 7:00 AM)57% (Dec 12, 3:00 PM)29.75 "Hg (Dec 12, 8:00 PM)
Average38 °F86%30.06 "Hg
* Reported Dec 5 9:00 AM — Dec 20 9:00 AM, Plzen, Weather by CustomWeather, © 2014

Note: Actual official high and low records may vary slightly from our data, if they occured in-between our weather recording intervals... More about our weather records

Advertising

Plzen weather history for previous 24 hours

 ConditionsComfort  
Time TempWeatherWind HumidityBarometerVisibility
9:00 AM
Dec 20
37 °FPassing clouds.10 mph76%30.19 "Hg22 mi
8:00 AM36 °FScattered clouds.9 mph77%30.19 "Hg25 mi
7:00 AM36 °FPassing clouds.8 mph78%30.18 "Hg22 mi
6:00 AM36 °FChilly.7 mph79%30.19 "Hg12 mi
5:00 AM36 °FChilly.8 mph77%30.17 "Hg12 mi
4:00 AM37 °FChilly.9 mph78%30.16 "Hg12 mi
3:00 AM39 °FChilly.9 mph78%30.13 "Hg12 mi
2:00 AM43 °FQuite cool.9 mph80%30.08 "Hg12 mi
1:00 AM44 °FQuite cool.10 mph83%30.04 "Hg12 mi
12:00 AM45 °FQuite cool.8 mph81%30.00 "Hg12 mi
11:00 PM
Dec 19
45 °FRain showers. Overcast.9 mph82%30.00 "Hg12 mi
10:00 PM46 °FRain. Overcast.9 mph92%29.97 "Hg6 mi
9:00 PM47 °FLight rain. Overcast.12 mph86%29.95 "Hg9 mi
8:00 PM47 °FLight rain. Overcast.12 mph85%29.93 "Hg9 mi
7:00 PM47 °FLight rain. Overcast.12 mph86%29.94 "Hg9 mi
6:00 PM48 °FLight rain. Overcast.10 mph80%29.93 "Hg9 mi
5:00 PM50 °FOvercast.12 mph73%29.91 "Hg22 mi
4:00 PM50 °FOvercast.12 mph71%29.92 "Hg25 mi
3:00 PM50 °FOvercast.10 mph71%29.93 "Hg31 mi
2:00 PM50 °FOvercast.9 mph70%29.95 "Hg34 mi
1:00 PM50 °FOvercast.12 mph71%29.96 "Hg37 mi
12:00 PM50 °FOvercast.10 mph70%29.98 "Hg37 mi
11:00 AM49 °FOvercast.9 mph71%30.01 "Hg37 mi
Weather by CustomWeather, © 2014

See weather overviewHow to use our weather pages